contact:dominique.lefevre@mio.osupytheas.fr, maurice.libes@osupytheas.fr, didier.mallarino@osupytheas.fr
Project:EMSO http://www.emso-fr.org/EMSO-France
Depth: 2436.0 m
Title:EMSO Ligure Ouest : Data MII capteur MICROCAT
DateTime_Computer,Latitude,Longitude,Temperature,Conductivity,Pressure,DateTime_Instrument
DateTime_Computer,Latitude,Longitude,degC,S m-1,dbar,DateTime_Instrument
2021-10-02T00:01:39Z,42.805,6.029,13.2989,4.60009,2470.38,2021-10-02T02:03:02Z
2021-10-02T00:04:42Z,42.805,6.029,13.2988,4.60006,2470.343,2021-10-02T02:06:05Z
2021-10-02T00:07:46Z,42.805,6.029,13.2992,4.60006,2470.38,2021-10-02T02:09:08Z
2021-10-02T00:10:49Z,42.805,6.029,13.2993,4.60009,2470.334,2021-10-02T02:12:11Z
2021-10-02T00:13:52Z,42.805,6.029,13.2990,4.60006,2470.39,2021-10-02T02:15:14Z
2021-10-02T00:16:55Z,42.805,6.029,13.2993,4.60006,2470.343,2021-10-02T02:18:17Z
2021-10-02T00:19:58Z,42.805,6.029,13.2990,4.60007,2470.366,2021-10-02T02:21:20Z
2021-10-02T00:23:01Z,42.805,6.029,13.2988,4.60006,2470.38,2021-10-02T02:24:24Z
2021-10-02T00:26:04Z,42.805,6.029,13.2990,4.60006,2470.38,2021-10-02T02:27:27Z
2021-10-02T00:29:07Z,42.805,6.029,13.2990,4.60005,2470.404,2021-10-02T02:30:30Z
2021-10-02T00:32:10Z,42.805,6.029,13.2991,4.60005,2470.39,2021-10-02T02:33:33Z
2021-10-02T00:35:14Z,42.805,6.029,13.2990,4.60005,2470.366,2021-10-02T02:36:36Z
2021-10-02T00:38:17Z,42.805,6.029,13.2986,4.60004,2470.343,2021-10-02T02:39:39Z
2021-10-02T00:41:20Z,42.805,6.029,13.2991,4.60007,2470.366,2021-10-02T02:42:42Z
2021-10-02T00:44:23Z,42.805,6.029,13.2993,4.60008,2470.39,2021-10-02T02:45:45Z
2021-10-02T00:47:26Z,42.805,6.029,13.2989,4.60009,2470.366,2021-10-02T02:48:48Z
2021-10-02T00:50:29Z,42.805,6.029,13.2991,4.60005,2470.38,2021-10-02T02:51:52Z
2021-10-02T00:53:32Z,42.805,6.029,13.2991,4.60007,2470.376,2021-10-02T02:54:55Z
2021-10-02T00:56:35Z,42.805,6.029,13.2990,4.60006,2470.413,2021-10-02T02:57:58Z
2021-10-02T00:59:39Z,42.805,6.029,13.2990,4.60007,2470.343,2021-10-02T03:01:01Z
2021-10-02T01:02:42Z,42.805,6.029,13.2993,4.60006,2470.366,2021-10-02T03:04:04Z
2021-10-02T01:05:45Z,42.805,6.029,13.2990,4.60007,2470.357,2021-10-02T03:07:07Z
2021-10-02T01:08:48Z,42.805,6.029,13.2992,4.60007,2470.366,2021-10-02T03:10:10Z
2021-10-02T01:11:51Z,42.805,6.029,13.2993,4.60009,2470.38,2021-10-02T03:13:13Z
2021-10-02T01:14:54Z,42.805,6.029,13.2991,4.60007,2470.39,2021-10-02T03:16:17Z
2021-10-02T01:17:57Z,42.805,6.029,13.2991,4.60006,2470.38,2021-10-02T03:19:20Z
2021-10-02T01:21:00Z,42.805,6.029,13.2990,4.60006,2470.38,2021-10-02T03:22:23Z
2021-10-02T01:24:04Z,42.805,6.029,13.2994,4.60009,2470.39,2021-10-02T03:25:26Z
2021-10-02T01:27:07Z,42.805,6.029,13.2991,4.60007,2470.38,2021-10-02T03:28:29Z
2021-10-02T01:30:10Z,42.805,6.029,13.2993,4.60009,2470.357,2021-10-02T03:31:32Z
2021-10-02T01:33:13Z,42.805,6.029,13.2994,4.60007,2470.366,2021-10-02T03:34:35Z
2021-10-02T01:36:16Z,42.805,6.029,13.2992,4.60009,2470.404,2021-10-02T03:37:38Z
2021-10-02T01:39:19Z,42.805,6.029,13.2991,4.60009,2470.366,2021-10-02T03:40:41Z
2021-10-02T01:42:22Z,42.805,6.029,13.2990,4.60009,2470.39,2021-10-02T03:43:45Z
2021-10-02T01:45:25Z,42.805,6.029,13.2992,4.60009,2470.366,2021-10-02T03:46:48Z
2021-10-02T01:48:28Z,42.805,6.029,13.2987,4.60007,2470.39,2021-10-02T03:49:51Z
2021-10-02T01:51:32Z,42.805,6.029,13.2996,4.60005,2470.427,2021-10-02T03:52:54Z
2021-10-02T01:54:35Z,42.805,6.029,13.2989,4.60013,2470.343,2021-10-02T03:55:57Z
2021-10-02T01:57:38Z,42.805,6.029,13.2991,4.60008,2470.38,2021-10-02T03:59:00Z
2021-10-02T02:00:41Z,42.805,6.029,13.2992,4.60008,2470.39,2021-10-02T04:02:03Z
2021-10-02T02:03:44Z,42.805,6.029,13.2993,4.60009,2470.343,2021-10-02T04:05:06Z
2021-10-02T02:06:47Z,42.805,6.029,13.2991,4.60008,2470.357,2021-10-02T04:08:10Z
2021-10-02T02:09:50Z,42.805,6.029,13.2993,4.60005,2470.38,2021-10-02T04:11:13Z
2021-10-02T02:12:53Z,42.805,6.029,13.2989,4.60008,2470.39,2021-10-02T04:14:16Z
2021-10-02T02:15:56Z,42.805,6.029,13.2993,4.60007,2470.404,2021-10-02T04:17:19Z
2021-10-02T02:19:00Z,42.805,6.029,13.2991,4.60011,2470.366,2021-10-02T04:20:22Z
2021-10-02T02:22:03Z,42.805,6.029,13.2991,4.60008,2470.39,2021-10-02T04:23:25Z
2021-10-02T02:25:06Z,42.805,6.029,13.2991,4.60006,2470.366,2021-10-02T04:26:28Z
2021-10-02T02:28:09Z,42.805,6.029,13.2991,4.60008,2470.404,2021-10-02T04:29:31Z
2021-10-02T02:31:12Z,42.805,6.029,13.2990,4.60007,2470.413,2021-10-02T04:32:34Z
2021-10-02T02:34:15Z,42.805,6.029,13.2991,4.60006,2470.437,2021-10-02T04:35:38Z
2021-10-02T02:37:18Z,42.805,6.029,13.2992,4.60011,2470.376,2021-10-02T04:38:41Z
2021-10-02T02:40:21Z,42.805,6.029,13.2993,4.60011,2470.38,2021-10-02T04:41:44Z
2021-10-02T02:43:25Z,42.805,6.029,13.2990,4.60008,2470.39,2021-10-02T04:44:47Z
2021-10-02T02:46:28Z,42.805,6.029,13.2991,4.60007,2470.404,2021-10-02T04:47:50Z
2021-10-02T02:49:31Z,42.805,6.029,13.2991,4.60008,2470.376,2021-10-02T04:50:53Z
2021-10-02T02:52:34Z,42.805,6.029,13.2990,4.60006,2470.413,2021-10-02T04:53:56Z
2021-10-02T02:55:37Z,42.805,6.029,13.2991,4.60007,2470.366,2021-10-02T04:56:59Z
2021-10-02T02:58:40Z,42.805,6.029,13.2993,4.60014,2470.366,2021-10-02T05:00:03Z
2021-10-02T03:01:43Z,42.805,6.029,13.2991,4.60007,2470.39,2021-10-02T05:03:06Z
2021-10-02T03:04:46Z,42.805,6.029,13.2991,4.60007,2470.404,2021-10-02T05:06:09Z
2021-10-02T03:07:49Z,42.805,6.029,13.2991,4.60009,2470.366,2021-10-02T05:09:12Z
2021-10-02T03:10:53Z,42.805,6.029,13.2991,4.60008,2470.413,2021-10-02T05:12:15Z
2021-10-02T03:13:56Z,42.805,6.029,13.2990,4.60008,2470.413,2021-10-02T05:15:18Z
2021-10-02T03:16:59Z,42.805,6.029,13.2987,4.60006,2470.427,2021-10-02T05:18:21Z
2021-10-02T03:20:02Z,42.805,6.029,13.2990,4.60008,2470.39,2021-10-02T05:21:24Z
2021-10-02T03:23:05Z,42.805,6.029,13.2994,4.60006,2470.404,2021-10-02T05:24:27Z
2021-10-02T03:26:08Z,42.805,6.029,13.2993,4.60008,2470.427,2021-10-02T05:27:31Z
2021-10-02T03:29:11Z,42.805,6.029,13.2995,4.60007,2470.437,2021-10-02T05:30:34Z
2021-10-02T03:32:14Z,42.805,6.029,13.2990,4.60008,2470.413,2021-10-02T05:33:37Z
2021-10-02T03:35:18Z,42.805,6.029,13.2992,4.60011,2470.427,2021-10-02T05:36:40Z
2021-10-02T03:38:21Z,42.805,6.029,13.2993,4.60010,2470.404,2021-10-02T05:39:43Z
2021-10-02T03:41:24Z,42.805,6.029,13.2990,4.60009,2470.38,2021-10-02T05:42:46Z
2021-10-02T03:44:27Z,42.805,6.029,13.2991,4.60006,2470.413,2021-10-02T05:45:49Z
2021-10-02T03:47:30Z,42.805,6.029,13.2991,4.60006,2470.404,2021-10-02T05:48:52Z
2021-10-02T03:50:33Z,42.805,6.029,13.2994,4.60006,2470.427,2021-10-02T05:51:56Z
2021-10-02T03:53:36Z,42.805,6.029,13.2990,4.60009,2470.427,2021-10-02T05:54:59Z
2021-10-02T03:56:39Z,42.805,6.029,13.2992,4.60010,2470.427,2021-10-02T05:58:02Z
2021-10-02T03:59:43Z,42.805,6.029,13.2991,4.60009,2470.427,2021-10-02T06:01:05Z
2021-10-02T04:02:46Z,42.805,6.029,13.2995,4.60010,2470.413,2021-10-02T06:04:08Z
2021-10-02T04:05:49Z,42.805,6.029,13.2992,4.60008,2470.413,2021-10-02T06:07:11Z
2021-10-02T04:08:52Z,42.805,6.029,13.2994,4.60010,2470.39,2021-10-02T06:10:14Z
2021-10-02T04:11:55Z,42.805,6.029,13.2990,4.60011,2470.413,2021-10-02T06:13:17Z
2021-10-02T04:14:58Z,42.805,6.029,13.2993,4.60006,2470.413,2021-10-02T06:16:20Z
2021-10-02T04:18:01Z,42.805,6.029,13.2992,4.60009,2470.427,2021-10-02T06:19:24Z
2021-10-02T04:21:04Z,42.805,6.029,13.2993,4.60011,2470.404,2021-10-02T06:22:27Z
2021-10-02T04:24:07Z,42.805,6.029,13.2992,4.60011,2470.413,2021-10-02T06:25:30Z
2021-10-02T04:27:11Z,42.805,6.029,13.2992,4.60011,2470.45,2021-10-02T06:28:33Z
2021-10-02T04:30:14Z,42.805,6.029,13.2991,4.60007,2470.39,2021-10-02T06:31:36Z
2021-10-02T04:33:17Z,42.805,6.029,13.2992,4.60011,2470.399,2021-10-02T06:34:39Z
2021-10-02T04:36:20Z,42.805,6.029,13.2990,4.60011,2470.437,2021-10-02T06:37:42Z
2021-10-02T04:39:23Z,42.805,6.029,13.2990,4.60010,2470.404,2021-10-02T06:40:45Z
2021-10-02T04:42:26Z,42.805,6.029,13.2991,4.60007,2470.39,2021-10-02T06:43:49Z
2021-10-02T04:45:29Z,42.805,6.029,13.2989,4.60008,2470.413,2021-10-02T06:46:52Z
2021-10-02T04:48:32Z,42.805,6.029,13.2991,4.60010,2470.413,2021-10-02T06:49:55Z
2021-10-02T04:51:36Z,42.805,6.029,13.2996,4.60006,2470.45,2021-10-02T06:52:58Z
2021-10-02T04:54:39Z,42.805,6.029,13.2990,4.60009,2470.413,2021-10-02T06:56:01Z
2021-10-02T04:57:42Z,42.805,6.029,13.2990,4.60007,2470.427,2021-10-02T06:59:04Z
2021-10-02T05:00:45Z,42.805,6.029,13.2995,4.60010,2470.39,2021-10-02T07:02:07Z
2021-10-02T05:03:48Z,42.805,6.029,13.2990,4.60009,2470.437,2021-10-02T07:05:10Z
2021-10-02T05:06:51Z,42.805,6.029,13.2987,4.60008,2470.427,2021-10-02T07:08:13Z
2021-10-02T05:09:54Z,42.805,6.029,13.2990,4.60009,2470.427,2021-10-02T07:11:17Z
2021-10-02T05:12:57Z,42.805,6.029,13.2993,4.60007,2470.437,2021-10-02T07:14:20Z
2021-10-02T05:16:01Z,42.805,6.029,13.2990,4.60014,2470.413,2021-10-02T07:17:23Z
2021-10-02T05:19:04Z,42.805,6.029,13.2988,4.60011,2470.427,2021-10-02T07:20:26Z
2021-10-02T05:22:07Z,42.805,6.029,13.2987,4.60014,2470.404,2021-10-02T07:23:29Z
2021-10-02T05:25:10Z,42.805,6.029,13.2993,4.60008,2470.404,2021-10-02T07:26:32Z
2021-10-02T05:28:13Z,42.805,6.029,13.2993,4.60009,2470.413,2021-10-02T07:29:35Z
2021-10-02T05:31:16Z,42.805,6.029,13.2990,4.60008,2470.404,2021-10-02T07:32:38Z
2021-10-02T05:34:19Z,42.805,6.029,13.2993,4.60009,2470.427,2021-10-02T07:35:42Z
2021-10-02T05:37:22Z,42.805,6.029,13.2988,4.60011,2470.39,2021-10-02T07:38:45Z
2021-10-02T05:40:25Z,42.805,6.029,13.2996,4.60011,2470.413,2021-10-02T07:41:48Z
2021-10-02T05:43:29Z,42.805,6.029,13.2992,4.60009,2470.366,2021-10-02T07:44:51Z
2021-10-02T05:46:32Z,42.805,6.029,13.2992,4.60010,2470.39,2021-10-02T07:47:54Z
2021-10-02T05:49:35Z,42.805,6.029,13.2990,4.60011,2470.45,2021-10-02T07:50:57Z
2021-10-02T05:52:38Z,42.805,6.029,13.2996,4.60008,2470.413,2021-10-02T07:54:00Z
2021-10-02T05:55:41Z,42.805,6.029,13.2991,4.60010,2470.413,2021-10-02T07:57:03Z
2021-10-02T05:58:44Z,42.805,6.029,13.2990,4.60010,2470.45,2021-10-02T08:00:07Z
2021-10-02T06:01:47Z,42.805,6.029,13.2992,4.60011,2470.404,2021-10-02T08:03:10Z
2021-10-02T06:04:50Z,42.805,6.029,13.2992,4.60009,2470.39,2021-10-02T08:06:13Z
2021-10-02T06:07:53Z,42.805,6.029,13.2992,4.60008,2470.437,2021-10-02T08:09:16Z
2021-10-02T06:10:57Z,42.805,6.029,13.2990,4.60013,2470.427,2021-10-02T08:12:19Z
2021-10-02T06:14:00Z,42.805,6.029,13.2992,4.60010,2470.427,2021-10-02T08:15:22Z
2021-10-02T06:17:03Z,42.805,6.029,13.2987,4.60014,2470.427,2021-10-02T08:18:25Z
2021-10-02T06:20:06Z,42.805,6.029,13.2991,4.60009,2470.404,2021-10-02T08:21:28Z
2021-10-02T06:23:09Z,42.805,6.029,13.2992,4.60008,2470.404,2021-10-02T08:24:31Z
2021-10-02T06:26:12Z,42.805,6.029,13.2990,4.60009,2470.413,2021-10-02T08:27:35Z
2021-10-02T06:29:15Z,42.805,6.029,13.2990,4.60009,2470.39,2021-10-02T08:30:38Z
2021-10-02T06:32:18Z,42.805,6.029,13.2987,4.60011,2470.427,2021-10-02T08:33:41Z
2021-10-02T06:35:22Z,42.805,6.029,13.2991,4.60008,2470.413,2021-10-02T08:36:44Z
2021-10-02T06:38:25Z,42.805,6.029,13.2992,4.60009,2470.39,2021-10-02T08:39:47Z
2021-10-02T06:41:28Z,42.805,6.029,13.2990,4.60010,2470.39,2021-10-02T08:42:50Z
2021-10-02T06:44:31Z,42.805,6.029,13.2991,4.60009,2470.343,2021-10-02T08:45:53Z
2021-10-02T06:47:34Z,42.805,6.029,13.2989,4.60009,2470.404,2021-10-02T08:48:56Z
2021-10-02T06:50:37Z,42.805,6.029,13.2991,4.60008,2470.39,2021-10-02T08:52:00Z
2021-10-02T06:53:40Z,42.805,6.029,13.2996,4.60011,2470.366,2021-10-02T08:55:03Z
2021-10-02T06:56:43Z,42.805,6.029,13.2994,4.60010,2470.366,2021-10-02T08:58:06Z
2021-10-02T06:59:47Z,42.805,6.029,13.2991,4.60013,2470.437,2021-10-02T09:01:09Z
2021-10-02T07:02:50Z,42.805,6.029,13.2991,4.60009,2470.413,2021-10-02T09:04:12Z
2021-10-02T07:05:53Z,42.805,6.029,13.2990,4.60008,2470.404,2021-10-02T09:07:15Z
2021-10-02T07:08:56Z,42.805,6.029,13.2986,4.60009,2470.404,2021-10-02T09:10:18Z
2021-10-02T07:11:59Z,42.805,6.029,13.2988,4.60009,2470.404,2021-10-02T09:13:21Z
2021-10-02T07:15:02Z,42.805,6.029,13.2990,4.60009,2470.38,2021-10-02T09:16:25Z
2021-10-02T07:18:05Z,42.805,6.029,13.2987,4.60008,2470.39,2021-10-02T09:19:28Z
2021-10-02T07:21:08Z,42.805,6.029,13.2991,4.60009,2470.38,2021-10-02T09:22:31Z
2021-10-02T07:24:11Z,42.805,6.029,13.2991,4.60007,2470.404,2021-10-02T09:25:34Z
2021-10-02T07:27:15Z,42.805,6.029,13.2993,4.60008,2470.427,2021-10-02T09:28:37Z
2021-10-02T07:30:18Z,42.805,6.029,13.2991,4.60008,2470.404,2021-10-02T09:31:40Z
2021-10-02T07:33:21Z,42.805,6.029,13.2994,4.60007,2470.39,2021-10-02T09:34:43Z
2021-10-02T07:36:24Z,42.805,6.029,13.2993,4.60008,2470.366,2021-10-02T09:37:46Z
2021-10-02T07:39:27Z,42.805,6.029,13.2990,4.60009,2470.366,2021-10-02T09:40:49Z
2021-10-02T07:42:30Z,42.805,6.029,13.2987,4.60010,2470.39,2021-10-02T09:43:53Z
2021-10-02T07:45:33Z,42.805,6.029,13.2991,4.60011,2470.39,2021-10-02T09:46:56Z
2021-10-02T07:48:36Z,42.805,6.029,13.2993,4.60011,2470.357,2021-10-02T09:49:59Z
2021-10-02T07:51:40Z,42.805,6.029,13.2991,4.60009,2470.39,2021-10-02T09:53:02Z
2021-10-02T07:54:43Z,42.805,6.029,13.2991,4.60009,2470.343,2021-10-02T09:56:05Z
2021-10-02T07:57:46Z,42.805,6.029,13.2992,4.60009,2470.404,2021-10-02T09:59:08Z
2021-10-02T08:00:49Z,42.805,6.029,13.2993,4.60010,2470.427,2021-10-02T10:02:11Z
2021-10-02T08:03:52Z,42.805,6.029,13.2993,4.60011,2470.39,2021-10-02T10:05:14Z
2021-10-02T08:06:55Z,42.805,6.029,13.2991,4.60009,2470.413,2021-10-02T10:08:18Z
2021-10-02T08:09:58Z,42.805,6.029,13.2993,4.60009,2470.366,2021-10-02T10:11:21Z
2021-10-02T08:13:01Z,42.805,6.029,13.2990,4.60008,2470.39,2021-10-02T10:14:24Z
2021-10-02T08:16:05Z,42.805,6.029,13.2993,4.60014,2470.404,2021-10-02T10:17:27Z
2021-10-02T08:19:08Z,42.805,6.029,13.2992,4.60008,2470.357,2021-10-02T10:20:30Z
2021-10-02T08:22:11Z,42.805,6.029,13.2987,4.60008,2470.38,2021-10-02T10:23:33Z
2021-10-02T08:25:14Z,42.805,6.029,13.2991,4.60008,2470.38,2021-10-02T10:26:36Z
2021-10-02T08:28:17Z,42.805,6.029,13.2996,4.60009,2470.366,2021-10-02T10:29:39Z
2021-10-02T08:31:20Z,42.805,6.029,13.2991,4.60010,2470.39,2021-10-02T10:32:43Z
2021-10-02T08:34:23Z,42.805,6.029,13.2994,4.60008,2470.39,2021-10-02T10:35:46Z
2021-10-02T08:37:26Z,42.805,6.029,13.2994,4.60009,2470.38,2021-10-02T10:38:49Z
2021-10-02T08:40:30Z,42.805,6.029,13.2990,4.60010,2470.38,2021-10-02T10:41:52Z
2021-10-02T08:43:33Z,42.805,6.029,13.2993,4.60008,2470.404,2021-10-02T10:44:55Z
2021-10-02T08:46:36Z,42.805,6.029,13.2992,4.60007,2470.38,2021-10-02T10:47:58Z
2021-10-02T08:49:39Z,42.805,6.029,13.2988,4.60007,2470.366,2021-10-02T10:51:01Z
2021-10-02T08:52:42Z,42.805,6.029,13.2993,4.60009,2470.39,2021-10-02T10:54:04Z
2021-10-02T08:55:45Z,42.805,6.029,13.2993,4.60009,2470.404,2021-10-02T10:57:08Z
2021-10-02T08:58:48Z,42.805,6.029,13.2993,4.60008,2470.38,2021-10-02T11:00:11Z
2021-10-02T09:01:51Z,42.805,6.029,13.2989,4.60008,2470.343,2021-10-02T11:03:14Z
2021-10-02T09:04:55Z,42.805,6.029,13.2990,4.60007,2470.343,2021-10-02T11:06:17Z
2021-10-02T09:07:58Z,42.805,6.029,13.2990,4.60007,2470.343,2021-10-02T11:09:20Z
2021-10-02T09:11:01Z,42.805,6.029,13.2995,4.60009,2470.38,2021-10-02T11:12:23Z
2021-10-02T09:14:04Z,42.805,6.029,13.2991,4.60008,2470.39,2021-10-02T11:15:26Z
2021-10-02T09:17:07Z,42.805,6.029,13.2993,4.60007,2470.357,2021-10-02T11:18:29Z
2021-10-02T09:20:10Z,42.805,6.029,13.2991,4.60008,2470.39,2021-10-02T11:21:33Z
2021-10-02T09:23:13Z,42.805,6.029,13.2992,4.60009,2470.366,2021-10-02T11:24:36Z
2021-10-02T09:26:16Z,42.805,6.029,13.2988,4.59999,2470.38,2021-10-02T11:27:39Z
2021-10-02T09:29:19Z,42.805,6.029,13.2988,4.60009,2470.38,2021-10-02T11:30:42Z
2021-10-02T09:32:23Z,42.805,6.029,13.2991,4.60009,2470.343,2021-10-02T11:33:45Z
2021-10-02T09:35:26Z,42.805,6.029,13.2990,4.60006,2470.357,2021-10-02T11:36:48Z
2021-10-02T09:38:29Z,42.805,6.029,13.2993,4.60006,2470.366,2021-10-02T11:39:51Z
2021-10-02T09:41:32Z,42.805,6.029,13.2991,4.60008,2470.366,2021-10-02T11:42:54Z
2021-10-02T09:44:35Z,42.805,6.029,13.2991,4.60009,2470.343,2021-10-02T11:45:58Z
2021-10-02T09:47:38Z,42.805,6.029,13.2993,4.60010,2470.39,2021-10-02T11:49:01Z
2021-10-02T09:50:41Z,42.805,6.029,13.2993,4.60009,2470.343,2021-10-02T11:52:04Z
2021-10-02T09:53:44Z,42.805,6.029,13.2990,4.60009,2470.366,2021-10-02T11:55:07Z
2021-10-02T09:56:48Z,42.805,6.029,13.2992,4.60010,2470.366,2021-10-02T11:58:10Z
2021-10-02T09:59:51Z,42.805,6.029,13.2990,4.60010,2470.343,2021-10-02T12:01:13Z
2021-10-02T10:02:54Z,42.805,6.029,13.2992,4.60008,2470.32,2021-10-02T12:04:16Z
2021-10-02T10:05:57Z,42.805,6.029,13.2990,4.60009,2470.366,2021-10-02T12:07:19Z
2021-10-02T10:09:00Z,42.805,6.029,13.2993,4.60007,2470.343,2021-10-02T12:10:22Z
2021-10-02T10:12:03Z,42.805,6.029,13.2989,4.60008,2470.32,2021-10-02T12:13:26Z
2021-10-02T10:15:06Z,42.805,6.029,13.2993,4.60009,2470.357,2021-10-02T12:16:29Z
2021-10-02T10:18:09Z,42.805,6.029,13.2994,4.60010,2470.366,2021-10-02T12:19:32Z
2021-10-02T10:21:13Z,42.805,6.029,13.2990,4.60009,2470.38,2021-10-02T12:22:35Z
2021-10-02T10:24:16Z,42.805,6.029,13.2990,4.60007,2470.366,2021-10-02T12:25:38Z
2021-10-02T10:27:19Z,42.805,6.029,13.2990,4.60007,2470.39,2021-10-02T12:28:41Z
2021-10-02T10:30:22Z,42.805,6.029,13.2994,4.60007,2470.38,2021-10-02T12:31:44Z
2021-10-02T10:33:25Z,42.805,6.029,13.2990,4.60009,2470.366,2021-10-02T12:34:47Z
2021-10-02T10:36:28Z,42.805,6.029,13.2993,4.60006,2470.366,2021-10-02T12:37:51Z
2021-10-02T10:39:31Z,42.805,6.029,13.2993,4.60008,2470.343,2021-10-02T12:40:54Z
2021-10-02T10:42:34Z,42.805,6.029,13.2989,4.60009,2470.404,2021-10-02T12:43:57Z
2021-10-02T10:45:38Z,42.805,6.029,13.2991,4.60006,2470.38,2021-10-02T12:47:00Z
2021-10-02T10:48:41Z,42.805,6.029,13.2992,4.60007,2470.39,2021-10-02T12:50:03Z
2021-10-02T10:51:44Z,42.805,6.029,13.2990,4.60008,2470.38,2021-10-02T12:53:06Z
2021-10-02T10:54:47Z,42.805,6.029,13.2992,4.60006,2470.32,2021-10-02T12:56:09Z
2021-10-02T10:57:50Z,42.805,6.029,13.2990,4.60007,2470.343,2021-10-02T12:59:12Z
2021-10-02T11:00:53Z,42.805,6.029,13.2990,4.60006,2470.343,2021-10-02T13:02:16Z
2021-10-02T11:03:56Z,42.805,6.029,13.2992,4.60008,2470.343,2021-10-02T13:05:19Z
2021-10-02T11:06:59Z,42.805,6.029,13.2992,4.60006,2470.343,2021-10-02T13:08:22Z
2021-10-02T11:10:03Z,42.805,6.029,13.2993,4.60009,2470.366,2021-10-02T13:11:25Z
2021-10-02T11:13:06Z,42.805,6.029,13.2993,4.60007,2470.343,2021-10-02T13:14:28Z
2021-10-02T11:16:09Z,42.805,6.029,13.2991,4.60008,2470.357,2021-10-02T13:17:31Z
2021-10-02T11:19:12Z,42.805,6.029,13.2993,4.60008,2470.38,2021-10-02T13:20:34Z
2021-10-02T11:22:15Z,42.805,6.029,13.2993,4.60008,2470.404,2021-10-02T13:23:37Z
2021-10-02T11:25:18Z,42.805,6.029,13.2990,4.60007,2470.343,2021-10-02T13:26:41Z
2021-10-02T11:28:21Z,42.805,6.029,13.2991,4.60007,2470.343,2021-10-02T13:29:44Z
2021-10-02T11:31:24Z,42.805,6.029,13.2993,4.60010,2470.366,2021-10-02T13:32:47Z
2021-10-02T11:34:28Z,42.805,6.029,13.2992,4.60006,2470.366,2021-10-02T13:35:50Z
2021-10-02T11:37:31Z,42.805,6.029,13.2992,4.60007,2470.366,2021-10-02T13:38:53Z
2021-10-02T11:40:34Z,42.805,6.029,13.2993,4.60006,2470.39,2021-10-02T13:41:56Z
2021-10-02T11:43:37Z,42.805,6.029,13.2991,4.60007,2470.366,2021-10-02T13:44:59Z
2021-10-02T11:46:40Z,42.805,6.029,13.2993,4.60006,2470.343,2021-10-02T13:48:02Z
2021-10-02T11:49:43Z,42.805,6.029,13.2991,4.60005,2470.38,2021-10-02T13:51:06Z
2021-10-02T11:52:50Z,42.805,6.029,13.2991,4.60006,2470.366,2021-10-02T13:54:09Z
2021-10-02T11:55:49Z,42.805,6.029,13.2991,4.60005,2470.353,2021-10-02T13:57:12Z
2021-10-02T11:58:52Z,42.805,6.029,13.2986,4.60006,2470.343,2021-10-02T14:00:15Z
2021-10-02T12:01:56Z,42.805,6.029,13.2990,4.60006,2470.413,2021-10-02T14:03:18Z
2021-10-02T12:04:59Z,42.805,6.029,13.2992,4.60007,2470.343,2021-10-02T14:06:21Z
2021-10-02T12:08:02Z,42.805,6.029,13.2993,4.60006,2470.404,2021-10-02T14:09:24Z
2021-10-02T12:11:05Z,42.805,6.029,13.2991,4.60005,2470.366,2021-10-02T14:12:27Z
2021-10-02T12:14:08Z,42.805,6.029,13.2994,4.60005,2470.366,2021-10-02T14:15:30Z
2021-10-02T12:17:11Z,42.805,6.029,13.2991,4.60004,2470.437,2021-10-02T14:18:34Z
2021-10-02T12:20:14Z,42.805,6.029,13.2989,4.60004,2470.39,2021-10-02T14:21:37Z
2021-10-02T12:23:17Z,42.805,6.029,13.2991,4.60004,2470.39,2021-10-02T14:24:40Z
2021-10-02T12:26:21Z,42.805,6.029,13.2989,4.60005,2470.366,2021-10-02T14:27:43Z
2021-10-02T12:29:24Z,42.805,6.029,13.2990,4.60003,2470.366,2021-10-02T14:30:46Z
2021-10-02T12:32:27Z,42.805,6.029,13.2988,4.60005,2470.39,2021-10-02T14:33:49Z
2021-10-02T12:35:30Z,42.805,6.029,13.2990,4.60001,2470.404,2021-10-02T14:36:52Z
2021-10-02T12:38:33Z,42.805,6.029,13.2990,4.60003,2470.39,2021-10-02T14:39:55Z
2021-10-02T12:41:36Z,42.805,6.029,13.2987,4.60003,2470.39,2021-10-02T14:42:59Z
2021-10-02T12:44:39Z,42.805,6.029,13.2990,4.60003,2470.39,2021-10-02T14:46:02Z
2021-10-02T12:47:42Z,42.805,6.029,13.2986,4.60003,2470.404,2021-10-02T14:49:05Z
2021-10-02T12:50:46Z,42.805,6.029,13.2986,4.60004,2470.404,2021-10-02T14:52:08Z
2021-10-02T12:53:49Z,42.805,6.029,13.2984,4.60006,2470.39,2021-10-02T14:55:11Z
2021-10-02T12:56:52Z,42.805,6.029,13.2989,4.60004,2470.376,2021-10-02T14:58:14Z
2021-10-02T12:59:55Z,42.805,6.029,13.2986,4.60003,2470.39,2021-10-02T15:01:17Z
2021-10-02T13:02:58Z,42.805,6.029,13.2987,4.60004,2470.404,2021-10-02T15:04:20Z
2021-10-02T13:06:01Z,42.805,6.029,13.2987,4.60004,2470.39,2021-10-02T15:07:24Z
2021-10-02T13:09:04Z,42.805,6.029,13.2988,4.60003,2470.39,2021-10-02T15:10:27Z
2021-10-02T13:12:07Z,42.805,6.029,13.2987,4.60003,2470.39,2021-10-02T15:13:30Z
2021-10-02T13:15:11Z,42.805,6.029,13.2990,4.60004,2470.413,2021-10-02T15:16:33Z
2021-10-02T13:18:14Z,42.805,6.029,13.2993,4.60004,2470.427,2021-10-02T15:19:36Z
2021-10-02T13:21:17Z,42.805,6.029,13.2991,4.60006,2470.399,2021-10-02T15:22:39Z
2021-10-02T13:24:20Z,42.805,6.029,13.2990,4.60004,2470.427,2021-10-02T15:25:42Z
2021-10-02T13:27:23Z,42.805,6.029,13.2985,4.60004,2470.39,2021-10-02T15:28:45Z
2021-10-02T13:30:26Z,42.805,6.029,13.2990,4.60006,2470.427,2021-10-02T15:31:49Z
2021-10-02T13:33:29Z,42.805,6.029,13.2990,4.60005,2470.427,2021-10-02T15:34:52Z
2021-10-02T13:36:33Z,42.805,6.029,13.2985,4.60003,2470.427,2021-10-02T15:37:55Z
2021-10-02T13:39:36Z,42.805,6.029,13.2984,4.60005,2470.413,2021-10-02T15:40:58Z
2021-10-02T13:42:39Z,42.805,6.029,13.2992,4.60003,2470.413,2021-10-02T15:44:01Z
2021-10-02T13:45:42Z,42.805,6.029,13.2991,4.60003,2470.413,2021-10-02T15:47:04Z
2021-10-02T13:48:45Z,42.805,6.029,13.2986,4.60004,2470.474,2021-10-02T15:50:07Z
2021-10-02T13:51:48Z,42.805,6.029,13.2992,4.60004,2470.404,2021-10-02T15:53:11Z
2021-10-02T13:54:51Z,42.805,6.029,13.2991,4.60004,2470.45,2021-10-02T15:56:14Z
2021-10-02T13:57:54Z,42.805,6.029,13.2991,4.60006,2470.45,2021-10-02T15:59:17Z
2021-10-02T14:00:58Z,42.805,6.029,13.2990,4.60006,2470.45,2021-10-02T16:02:20Z
2021-10-02T14:04:01Z,42.805,6.029,13.2988,4.60005,2470.45,2021-10-02T16:05:23Z
2021-10-02T14:07:04Z,42.805,6.029,13.2991,4.60004,2470.437,2021-10-02T16:08:26Z
2021-10-02T14:10:07Z,42.805,6.029,13.2991,4.60003,2470.437,2021-10-02T16:11:29Z
2021-10-02T14:13:10Z,42.805,6.029,13.2991,4.60004,2470.427,2021-10-02T16:14:32Z
2021-10-02T14:16:13Z,42.805,6.029,13.2987,4.60004,2470.46,2021-10-02T16:17:36Z
2021-10-02T14:19:16Z,42.805,6.029,13.2992,4.60005,2470.46,2021-10-02T16:20:39Z
2021-10-02T14:22:19Z,42.805,6.029,13.2990,4.60005,2470.483,2021-10-02T16:23:42Z
2021-10-02T14:25:23Z,42.805,6.029,13.2988,4.60005,2470.46,2021-10-02T16:26:45Z
2021-10-02T14:28:26Z,42.805,6.029,13.2990,4.60005,2470.45,2021-10-02T16:29:48Z
2021-10-02T14:31:29Z,42.805,6.029,13.2989,4.60004,2470.413,2021-10-02T16:32:51Z
2021-10-02T14:34:32Z,42.805,6.029,13.2990,4.60007,2470.52,2021-10-02T16:35:54Z
2021-10-02T14:37:35Z,42.805,6.029,13.2986,4.60005,2470.46,2021-10-02T16:38:57Z
2021-10-02T14:40:38Z,42.805,6.029,13.2991,4.60006,2470.45,2021-10-02T16:42:01Z
2021-10-02T14:43:41Z,42.805,6.029,13.2991,4.60003,2470.46,2021-10-02T16:45:04Z
2021-10-02T14:46:44Z,42.805,6.029,13.2989,4.60003,2470.483,2021-10-02T16:48:07Z
2021-10-02T14:49:47Z,42.805,6.029,13.2991,4.60005,2470.483,2021-10-02T16:51:10Z
2021-10-02T14:52:51Z,42.805,6.029,13.2988,4.60005,2470.497,2021-10-02T16:54:13Z
2021-10-02T14:55:54Z,42.805,6.029,13.2990,4.60005,2470.483,2021-10-02T16:57:16Z
2021-10-02T14:58:57Z,42.805,6.029,13.2990,4.60004,2470.483,2021-10-02T17:00:19Z
2021-10-02T15:02:00Z,42.805,6.029,13.2991,4.60004,2470.474,2021-10-02T17:03:22Z